Geely Xingzuo 04 zu 02 xing

operational
NORAD ID: 65120 Int'l Des: 2025-170 Owner: GEESP Country: CN Constellation: geesatcom
LEOCIRCULAR

About Geely Xingzuo 04 zu 02 xing

Description loading...

Live Position

Loading 3D Globe...

Upcoming Passes

Altitude History

Altitude vs Time

uPlot chart will show altitude changes over time

Two-Line Element Set

1 65120U 25170B 25311.11663247 .00003832 00000-0 44974-3 0 9998
2 65120 49.9825 123.9468 0008444 312.0940 47.9281 14.86905140 13480
Epoch: Nov 7, 2025 • Age: 13 hours

Current Status

Altitude 613.6 km
Velocity 7.56 km/s
Sub-Earth Point 43.60°N, 112.86°W
Launch Date Aug 8, 2025
Age 0.2 years
Type other

Technical Details

Classification Payload
Mass 130.00 kg
Dry Mass 130.00 kg
Total Mass 130.00 kg
Length 1.00 m
Diameter 0.50 m
Span 2.00 m
Shape Box + 2 pan
Manufacturer GWCG
Bus Type GPS100
Phase Status In Orbit
Owner/State GEESP/CN

Large Constellations

Loading constellations...